Location: Beuerbach
(48.1459°N, 10.9174°E)
Time: 00:55:37
(UTC+00:00)

Meteor 1-21 - Pass Details

Date: 07 August 2024
Orbit: 845 x 885 km, 81.2° (Epoch: 09 September)

Event Time Altitude Azimuth Distance (km) Brightness Sun altitude
Rises 02:37:14 0° 332° (NNW) 3,416 7.6 -12.3°
Reaches altitude 10° 02:40:50 10° 309° (NW) 2,476 6.5 -11.8°
Maximum altitude 02:43:37 14° 279° (W) 2,195 6.0 -11.5°
Enters shadow 02:45:43 12° 255° (WSW) 2,359 6.0 -11.2°
